Simultaneous Nadir Overpasses (SNOs) Predictions

Prediction of SNOs between AQUA and NOAA-19 Satellite Orbit:

Table of predicted SNOs for the next 14.0 days since TLE Epoch: 1/4/2025
Index Date (AQUA) Time (AQUA) Lat,Lon (AQUA) SZA (AQUA ) Date (NOAA-19) Time (NOAA-19) Lat,Lon (NOAA-19) SZA (NOAA-19 ) Distance(km) Time Diff (sec)
1 01/06/2025 02:29:41 75.61, 144.61 98.01 01/06/2025 02:28:58 75.61, 144.62 98.01 0.35 43
2 01/06/2025 03:19:01 -75.70, -47.97 81.91 01/06/2025 03:19:58 -75.67, -47.94 81.94 3.28 57
3 01/08/2025 05:27:40 75.61, 100.18 97.73 01/08/2025 05:27:26 75.62, 100.08 97.75 3.06 14
4 01/08/2025 06:17:10 -76.18, -93.92 81.70 01/08/2025 06:18:15 -76.19, -90.66 81.68 86.55 65
5 01/10/2025 07:36:16 -75.55,-111.75 82.64 01/10/2025 07:35:03 -75.45,-112.32 82.73 19.09 73
6 01/10/2025 08:25:38 75.63, 55.67 97.45 01/10/2025 08:25:53 75.66, 55.65 97.48 3.68 15
7 01/12/2025 10:34:13 -75.59,-156.32 82.93 01/12/2025 10:33:28 -75.60,-156.41 82.92 2.62 45
8 01/12/2025 11:23:35 75.68, 11.09 97.16 01/12/2025 11:24:20 75.69, 11.19 97.17 3.16 45
9 01/14/2025 13:32:08 -75.62, 159.18 83.27 01/14/2025 13:31:55 -75.64, 159.15 83.25 2.19 13
10 01/14/2025 14:21:33 75.85, -33.87 96.97 01/14/2025 14:22:43 75.89, -32.69 97.01 32.46 70
11 01/16/2025 15:40:36 75.29, -51.98 96.01 01/16/2025 15:39:28 75.22, -54.00 95.94 58.00 68
12 01/16/2025 16:30:02 -75.67, 114.61 83.62 01/16/2025 16:30:22 -75.66, 114.67 83.63 1.92 20



Historial Predications of SNOs between AQUA and NOAA-19
